Voltar ao catálogo

STARLINK-5359

AtivoComunicaçõesVLEO
NORAD 54864·PAYLOAD·🇺🇸 United States

Lançado Dec 28, 2022 de Cape Canaveral Space Force Station

Loading…

Próximas Passagens (próximas 24 horas)

TLE

AtualizadoSource: CelesTrak SupGP

Época: Sep 15, 2026, 01:49 UTC

1 54864C 22177AW  26258.07618056  .00049197  00000+0  17821-2 0  2580
2 54864  43.0008 132.3287 0001054 266.0295   6.5328 15.27550902    11

Acompanhe STARLINK-5359 em tempo real com AllMySat

Download on the App Store